Location: Newark
(41.0400°S, 62.7845°W)
Time: 20:29:09
(UTC+00:00)

Courier 1B Rocket - Pass Details

Date: 01 December 2021
Orbit: 920 x 1202 km, 28.2° (Epoch: 19 January)

Event Time Altitude Azimuth Distance (km) Brightness Sun altitude
Rises 19:07:57 0° 283° (WNW) 4,108 9.0 46.3°
Reaches altitude 10° 19:11:20 10° 294° (WNW) 3,135 8.6 45.7°
Maximum altitude 19:17:34 27° 347° (NNW) 2,109 7.3 44.5°
Drops below altitude 10° 19:23:37 10° 41° (NE) 3,030 7.4 43.4°
Sets 19:26:50 0° 52° (NE) 3,945 7.9 42.8°
